DW9996 Weather Reports


time (UTC)temp
F
wind
direction
speed
knots
gust
knots
rain 1hr
in
rain 24hr
in
rain mn
in
humidity
%
barometer
mb
20260906101542 56 325 7.0 13.9 0.00 0.00 0.00 60 1014.7
20260906100041 56 360 7.8 15.6 0.00 0.00 0.00 60 1014.8
20260906094542 55 342 6.1 14.8 0.00 0.00 0.00 60 1014.9
20260906093041 55 333 7.8 16.5 0.00 0.00 0.00 60 1014.9
20260906091536 55 355 7.0 12.2 0.00 0.00 0.00 60 1014.9
20260906090034 55 342 7.0 14.8 0.00 0.00 0.00 62 1015.0
20260906084543 55 310 5.2 12.2 0.00 0.00 0.00 65 1015.1
20260906083035 55 350 7.0 12.2 0.00 0.00 0.00 67 1015.0
20260906081525 56 347 6.1 11.3 0.00 0.00 0.00 68 1015.1
20260906080029 56 334 6.1 11.3 0.00 0.00 0.00 71 1015.2
20260906074519 56 319 7.0 12.2 0.00 0.00 0.00 72 1015.4
20260906073016 57 13 6.1 13.9 0.00 0.00 0.00 73 1015.7
20260906071513 57 360 7.8 12.2 0.00 0.00 0.00 73 1016.0
20260906070011 57 355 7.0 10.4 0.00 0.00 0.00 73 1016.1
20260906064514 58 19 6.1 10.4 0.00 0.00 0.00 73 1016.2
20260906063007 57 9 6.1 10.4 0.00 0.00 0.00 73 1016.3
20260906061506 57 17 5.2 11.3 0.00 0.00 0.00 72 1016.3
20260906060004 57 5 6.1 9.6 0.00 0.00 0.00 73 1016.4
20260906054502 57 315 5.2 12.2 0.00 0.00 0.00 74 1016.5
20260906053002 58 346 5.2 10.4 0.00 0.00 0.00 74 1016.4
20260906051501 58 17 5.2 10.4 0.00 0.00 0.00 74 1016.5
20260906050100 58 331 6.1 12.2 0.00 0.00 0.00 74 1016.3
20260906044557 59 327 7.0 14.8 0.00 0.00 0.00 73 1015.7
20260906043059 59 11 11.3 16.5 0.00 0.00 0.00 73 1015.7
20260906041602 59 360 8.7 14.8 0.00 0.00 0.00 73 1015.7
20260906040056 59 320 8.7 14.8 0.00 0.00 0.00 72 1015.7
20260906034557 60 5 6.1 11.3 0.00 0.00 0.00 72 1015.7
20260906033055 60 346 7.8 13.0 0.00 0.00 0.00 71 1015.3
20260906031554 60 341 9.6 14.8 0.00 0.00 0.00 70 1015.0
20260906030054 60 355 8.7 13.9 0.00 0.00 0.00 70 1014.5
20260906024608 61 347 7.8 13.9 0.00 0.00 0.00 69 1014.4
20260906023054 61 360 7.0 13.9 0.00 0.00 0.00 68 1014.4
20260906021553 62 5 7.0 15.6 0.00 0.00 0.00 67 1014.2
20260906020052 62 338 7.8 13.9 0.00 0.00 0.00 65 1014.2
20260906014602 63 355 7.0 14.8 0.00 0.00 0.00 64 1014.3
20260906013052 64 343 7.8 14.8 0.00 0.00 0.00 62 1014.2
20260906011551 65 16 9.6 15.6 0.00 0.00 0.00 60 1014.2
20260906010051 66 355 8.7 17.4 0.00 0.00 0.00 58 1014.0
20260906004550 68 315 8.7 16.5 0.00 0.00 0.00 54 1014.1
20260906003108 70 346 9.6 18.2 0.00 0.00 0.00 49 1013.9
20260906001550 73 327 6.1 12.2 0.00 0.00 0.00 40 1014.0
20260906000053 73 360 7.8 13.9 0.00 0.00 0.00 38 1014.1
20260905234548 74 360 5.2 12.2 0.00 0.00 0.00 39 1014.1
20260905233048 74 25 5.2 11.3 0.00 0.00 0.00 38 1014.1
20260905231547 74 26 5.2 10.4 0.00 0.00 0.00 37 1013.9
20260905230046 74 342 7.0 13.0 0.00 0.00 0.00 36 1013.9
20260905224545 75 63 4.3 8.7 0.00 0.00 0.00 36 1014.0
20260905223044 75 50 3.5 13.9 0.00 0.00 0.00 36 1014.0
20260905221545 74 9 2.6 10.4 0.00 0.00 0.00 36 1014.0
20260905220045 74 28 5.2 9.6 0.00 0.00 0.00 36 1014.0
20260905214542 74 11 6.1 12.2 0.00 0.00 0.00 36 1014.4
20260905213042 74 360 2.6 9.6 0.00 0.00 0.00 38 1014.2
20260905211542 74 348 3.5 11.3 0.00 0.00 0.00 38 1014.3
20260905210037 73 35 1.7 7.8 0.00 0.00 0.00 39 1014.4
20260905204535 73 301 0.9 7.0 0.00 0.00 0.00 39 1014.3
20260905203035 73 330 4.3 9.6 0.00 0.00 0.00 39 1014.4
20260905201537 73 336 4.3 8.7 0.00 0.00 0.00 39 1014.6
20260905200033 72 328 5.2 9.6 0.00 0.00 0.00 41 1014.6
20260905194529 72 321 1.7 9.6 0.00 0.00 0.00 43 1014.7
20260905193028 71 25 5.2 8.7 0.00 0.00 0.00 43 1014.8
20260905191528 71 317 3.5 8.7 0.00 0.00 0.00 43 1014.9
20260905190032 71 360 2.6 8.7 0.00 0.00 0.00 47 1015.2
20260905184523 70 346 1.7 5.2 0.00 0.00 0.00 48 1015.3
20260905183024 70 336 3.5 8.7 0.00 0.00 0.00 47 1015.5
20260905181531 70 342 1.7 8.7 0.00 0.00 0.00 47 1015.6
20260905180019 69 5 3.5 8.7 0.00 0.00 0.00 48 1015.6
20260905174516 68 344 2.6 7.8 0.00 0.00 0.00 51 1015.7
20260905173018 67 322 4.3 8.7 0.00 0.00 0.00 51 1015.7
20260905171523 67 315 2.6 7.8 0.00 0.00 0.00 57 1015.6
20260905170010 66 355 3.5 7.8 0.00 0.00 0.00 59 1015.7
20260905164508 65 9 3.5 8.7 0.00 0.00 0.00 60 1015.4
20260905163006 65 5 4.3 8.7 0.00 0.00 0.00 62 1015.5
20260905161503 64 336 3.5 7.8 0.00 0.00 0.00 62 1015.7
20260905160007 63 336 4.3 10.4 0.00 0.00 0.00 62 1015.5
20260905154603 63 327 4.3 11.3 0.00 0.00 0.00 65 1015.5
20260905153055 60 336 3.5 7.0 0.00 0.00 0.00 72 1015.7
20260905151555 60 281 4.3 8.7 0.00 0.00 0.00 72 1015.4
20260905150057 59 302 2.6 7.8 0.00 0.00 0.00 73 1015.6
20260905144554 60 318 2.6 7.0 0.00 0.00 0.00 72 1015.5
20260905143053 58 309 2.6 6.1 0.00 0.00 0.00 74 1015.3
20260905141544 55 293 1.7 4.3 0.00 0.00 0.00 71 1015.4
20260905140045 54 292 1.7 3.5 0.00 0.00 0.00 72 1015.4
20260905134544 54 285 1.7 5.2 0.00 0.00 0.00 73 1015.6
20260905133040 53 253 1.7 5.2 0.00 0.00 0.00 73 1016.1
20260905131548 53 277 0.9 4.3 0.00 0.00 0.00 73 1014.3
20260905130038 53 333 1.7 4.3 0.00 0.00 0.00 73 1013.7
20260905124541 53 315 1.7 3.5 0.00 0.00 0.00 74 1013.7
20260905123036 54 275 0.0 3.5 0.00 0.00 0.00 74 1014.6
20260905121533 53 269 1.7 5.2 0.00 0.00 0.00 74 1015.2
20260905120030 53 249 2.6 7.0 0.00 0.00 0.00 74 1014.7
20260905114537 52 292 1.7 4.3 0.00 0.00 0.00 74 1013.6
20260905113033 51 292 0.9 4.3 0.00 0.00 0.00 75 1013.9
20260905111525 51 277 2.6 6.1 0.00 0.00 0.00 74 1013.7
20260905110022 51 273 0.9 4.3 0.00 0.00 0.00 74 1013.5
20260905104522 49 315 1.7 3.5 0.00 0.00 0.00 75 1013.0
20260905103024 49 314 1.7 4.3 0.00 0.00 0.00 75 1012.9